Home > Weather > Sawai Madhopur > Past weeks

Flag for India Past Weather in Sawai Madhopur, Rajasthan, India — Yesterday and Last 2 Weeks

Now
82 °F

Scattered clouds.


Feels Like: 85 °F
Forecast: 89 / 108 °F
Wind: 8 mph from South

Location: Jaipur / Sanganer

Current Time: May 30, 2016 at 8:39:44 AM

Latest Report: May 30, 2016 at 7:30 AM


Visibility: 2 mi

Pressure: 29.65 "Hg

Humidity: 58%

Dew Point: 66 °F

Location of Sawai MadhopurLocation

Past Weather in Sawai Madhopur — Graph

°F

Sawai Madhopur Temperature Yesterday

Maximum temperature yesterday: 104 °F (at 3:00 PM)
Minimum temperature yesterday: 81 °F (at 6:00 AM)
Average temperature yesterday: 94 °F

High & Low Weather Summary for the Past Weeks

 TemperatureHumidityPressure
High115 °F (May 19, 2:30 PM)74% (May 24, 1:00 AM)29.77 "Hg (May 24, 1:00 AM)
Low77 °F (May 23, 11:00 PM)5% (May 19, 4:30 PM)29.42 "Hg (May 20, 3:30 PM)
Average97 °F29%29.59 "Hg
* Reported May 15 7:30 AM — May 30 7:30 AM, Sawai Madhopur, Weather by CustomWeather, © 2016

Note: Actual official high and low records may vary slightly from our data, if they occured in-between our weather recording intervals... More about our weather records

Advertising

Sawai Madhopur Weather History for the Previous 24 Hours

Scroll right to see more
 ConditionsComfort  
Time TempWeatherWind HumidityBarometerVisibility
7:30 AM
Mon, May 30
82 °FScattered clouds.8 mph58%29.65 "Hg1 mi
7:00 AM82 °FScattered clouds.9 mph58%29.68 "Hg1 mi
6:30 AM82 °FScattered clouds.10 mph58%29.68 "Hg1 mi
6:00 AM82 °FPassing clouds.12 mph55%29.62 "Hg1 mi
5:30 AM82 °FPassing clouds.10 mph28%29.59 "Hg1 mi
5:00 AM82 °FPassing clouds.9 mph51%29.62 "Hg1 mi
4:00 AM82 °FPassing clouds.13 mph51%29.62 "Hg1 mi
3:00 AM82 °FPassing clouds.14 mph51%29.62 "Hg1 mi
2:00 AM86 °FPassing clouds.20 mph46%29.65 "Hg1 mi
1:00 AM88 °FPassing clouds.13 mph35%29.65 "Hg1 mi
12:00 AM90 °FPassing clouds.7 mph33%29.62 "Hg1 mi
11:30 PM
Sun, May 29
90 °FPassing clouds.8 mph33%29.62 "Hg1 mi
11:00 PM91 °FPassing clouds.No wind34%29.62 "Hg1 mi
10:30 PM91 °FPassing clouds.1 mph34%29.62 "Hg1 mi
10:00 PM91 °FPassing clouds.7 mph34%29.62 "Hg2 mi
9:30 PM91 °FPassing clouds.7 mph34%29.59 "Hg2 mi
9:05 PM91 °FPassing clouds.13 mph34%29.59 "Hg2 mi
8:30 PM100 °FHaze.8 mph27%29.56 "Hg2 mi
8:00 PM100 °FPassing clouds.10 mph27%29.56 "Hg2 mi
7:00 PM102 °FScattered clouds.14 mph23%29.53 "Hg2 mi
5:30 PM104 °FScattered clouds.14 mph23%29.53 "Hg2 mi
5:00 PM104 °FHaze.13 mph20%29.53 "Hg2 mi
4:30 PM104 °FHaze.13 mph21%29.53 "Hg2 mi
4:00 PM104 °FLow level haze.13 mph23%29.56 "Hg1 mi
3:30 PM104 °FLow level haze.10 mph24%29.56 "Hg1 mi
3:00 PM104 °FLow level haze.15 mph24%29.59 "Hg1 mi
2:30 PM102 °FLow level haze.13 mph26%29.59 "Hg1 mi
2:00 PM102 °FLow level haze.12 mph26%29.59 "Hg1 mi
1:30 PM102 °FHaze.16 mph27%29.62 "Hg2 mi
1:00 PM100 °FHaze.15 mph29%29.62 "Hg2 mi
12:30 PM99 °FHaze.16 mph31%29.65 "Hg2 mi
12:00 PM97 °FHaze.14 mph30%29.65 "Hg2 mi
11:30 AM95 °FHaze.15 mph32%29.65 "Hg2 mi
11:00 AM95 °FHaze.15 mph34%29.68 "Hg2 mi
10:30 AM93 °FHaze.10 mph36%29.68 "Hg2 mi
10:00 AM91 °FHaze.9 mph38%29.68 "Hg2 mi
9:30 AM88 °FHaze.8 mph40%29.68 "Hg2 mi
9:00 AM86 °FHaze.7 mph43%29.68 "Hg2 mi
8:00 AM82 °FHaze.8 mph45%29.68 "Hg2 mi
Weather by CustomWeather, © 2016

See weather overviewHow to use our weather pages